Ketchikan, AK

8:19 AM AKDT on October 16, 2018 (GMT -0800)
Ketchikan International

Weather History for PAKT - October, 2018

Change the Weather History Date:

Tuesday, October 9, 2018

  Actual Average Record
Temperature  
Mean Temperature 48 °F -  
Max Temperature 54 °F 54 °F 61 °F (1957)
Min Temperature 42 °F 42 °F 31 °F (1959)
Degree Days  
Heating Degree Days 17    
Moisture  
Dew Point 39 °F    
Average Humidity 74    
Maximum Humidity 92    
Minimum Humidity 54    
Precipitation  
Precipitation 0.00 in - - ()
Sea Level Pressure  
Sea Level Pressure 30.15 in    
Wind  
Wind Speed 8 mph (NW)    
Max Wind Speed 12 mph    
Max Gust Speed -    
Visibility 10 miles    
Events      
Averages and records for this station are not official NWS values.
T = Trace of Precipitation, MM = Missing Value Source: NWS Daily Summary

Daily Weather History Graph

Daily Weather History Graph

Search for Another Location

Airport or City:

Astronomy

Oct. 09, 2018 Rise Set
Actual Time 7:05 AM AKDT 6:01 PM AKDT
Civil Twilight 6:28 AM AKDT 6:38 PM AKDT
Nautical Twilight 5:46 AM AKDT 7:20 PM AKDT
Astronomical Twilight 5:03 AM AKDT 8:03 PM AKDT
Moon 7:29 AM AKDT (10/9) 6:49 PM AKDT (10/9)
Length of Visible Light 12h 09m
Length of Day
10h 56m
New Moon, 1% of the Moon is Illuminated
Oct 9
New Moon
Oct 16
First Quarter
Oct 24
Full
Oct 31
Last Quarter
Nov 7
New

Hourly Weather History & Observations

Time (AKDT) Temp. Windchill Dew Point Humidity Pressure Visibility Wind Dir Wind Speed Gust Speed Precip Events Conditions
12:53 AM 48.9 °F - 43.0 °F 80% 30.15 in 10.0 mi NW 8.1 mph - N/A   Clear
1:53 AM 48.9 °F - 43.0 °F 80% 30.15 in 10.0 mi NW 9.2 mph - N/A   Clear
2:53 AM 48.9 °F - 43.0 °F 80% 30.15 in 10.0 mi NW 10.4 mph - N/A   Clear
3:53 AM 48.0 °F - 42.1 °F 80% 30.16 in 10.0 mi NW 11.5 mph - N/A   Clear
4:53 AM 46.9 °F - 41.0 °F 80% 30.16 in 10.0 mi NW 9.2 mph - N/A   Clear
5:53 AM 46.9 °F - 39.0 °F 74% 30.16 in 10.0 mi NW 6.9 mph - N/A   Clear
6:11 AM 46.9 °F - 39.0 °F 74% 30.16 in 10.0 mi NW 6.9 mph - N/A   Clear
6:53 AM 46.4 °F 42.4 °F 39.2 °F 76% 30.16 in 10.0 mi NW 8.1 mph - N/A   Clear
7:53 AM 46.4 °F 42.9 °F 39.2 °F 76% 30.16 in 10.0 mi NW 6.9 mph - N/A   Clear
8:53 AM 46.4 °F 42.4 °F 39.2 °F 76% 30.16 in 10.0 mi NNW 8.1 mph - N/A   Clear
9:53 AM 48.2 °F - 39.2 °F 71% 30.16 in 10.0 mi NNW 8.1 mph - N/A   Clear
10:53 AM 50.0 °F - 35.6 °F 58% 30.16 in 10.0 mi NW 11.5 mph - N/A   Clear
11:53 AM 51.8 °F - 37.4 °F 58% 30.16 in 10.0 mi NW 8.1 mph - N/A   Clear
12:53 PM 51.8 °F - 35.6 °F 54% 30.15 in 10.0 mi NW 6.9 mph - N/A   Clear
1:53 PM 51.8 °F - 35.6 °F 54% 30.14 in 10.0 mi NW 8.1 mph - N/A   Clear
2:53 PM 51.8 °F - 37.4 °F 58% 30.14 in 10.0 mi NNW 9.2 mph - N/A   Clear
3:53 PM 53.6 °F - 37.4 °F 54% 30.13 in 10.0 mi NW 8.1 mph - N/A   Mostly Cloudy
4:53 PM 50.0 °F - 37.4 °F 62% 30.12 in 10.0 mi NW 4.6 mph - N/A   Mostly Cloudy
5:53 PM 48.0 °F - 39.9 °F 74% 30.13 in 10.0 mi NW 5.8 mph - N/A   Scattered Clouds
6:53 PM 44.1 °F 40.8 °F 39.0 °F 82% 30.13 in 10.0 mi NW 5.8 mph - N/A   Clear
7:53 PM 45.0 °F 41.8 °F 39.9 °F 82% 30.13 in 10.0 mi WNW 5.8 mph - N/A   Clear
8:53 PM 43.0 °F 39.5 °F 39.9 °F 89% 30.14 in 10.0 mi WNW 5.8 mph - N/A   Clear
9:53 PM 43.0 °F 40.3 °F 39.9 °F 89% 30.13 in 10.0 mi WNW 4.6 mph - N/A   Clear
10:53 PM 43.0 °F 38.8 °F 39.9 °F 89% 30.14 in 10.0 mi NW 6.9 mph - N/A   Clear
11:53 PM 42.1 °F 39.2 °F 39.9 °F 92% 30.14 in 10.0 mi WNW 4.6 mph - N/A   Clear